Regional Weather Roundup
Issued by NWS

Home | Current Version | Previous Version | Text Only | Print | Product List | Glossary Off
Versions: 1 2 3 4 5 6 7 8 9 10 11 12 13 14 15 16 17 18 19 20 21 22 23 24 25 26 27 28 29 30 31 32 33 34 35 36 37 38 39 40 41 42 43 44 45 46 47 48 49 50

000
ASUS43 KDMX 191001
RWRIA

WEATHER ROUNDUP FOR IOWA
NATIONAL WEATHER SERVICE DES MOINES IA
500 AM CDT THU APR 19 2018

NOTE: "FAIR" INDICATES FEW OR NO CLOUDS BELOW 12,000 FEET WITH NO
SIGNIFICANT WEATHER AND/OR OBSTRUCTIONS TO VISIBILITY.

* - THESE STATIONS ARE NOT NWS STATIONS...THUS NOT UNDER NWS
QUALITY CONTROL.  THEY ALSO DO NOT REPORT WEATHER SUCH
AS PRECIPITATION OR FOG.

IAZ001>003-012>014-020>022-031>034-043>046-191100-
   NORTHWEST IOWA

CITY           SKY/WX    TMP DP  RH WIND       PRES   REMARKS
CARROLL *      CLEAR     32  30  93 N12       30.30R WCI  23
DENISON *      CLEAR     30  28  93 N5        30.33R WCI  25
LE MARS *      CLEAR     27  25  93 CALM      30.35R
ORANGE CITY *  CLEAR     30  25  80 N7        30.34R WCI  23
SHELDON *      CLOUDY    27  19  74 NE12      30.32R WCI  16
SIOUX CITY     CLEAR     30  27  88 NW8       30.35R WCI  22
SPENCER        CLOUDY    25  18  74 N12       30.33R WCI  14
STORM LAKE *   CLEAR     30  23  74 N12       30.31R WCI  21
$$

IAZ055>058-069>071-079>083-090>094-191100-
   SOUTHWEST IOWA

CITY           SKY/WX    TMP DP  RH WIND       PRES   REMARKS
ATLANTIC *     CLEAR     28  28 100 CALM      30.31R
AUDUBON *      CLEAR     30  27  86 NW6       30.31R WCI  24
CLARINDA *       N/A     28  27  93 N6        30.34R WCI  22
COUNCIL BLFS * CLEAR     30  30 100 NW7       30.32R WCI  23
CRESTON *      CLEAR     25  25 100 NW7       30.30R WCI  17
HARLAN  *      CLEAR     30  30 100 N7        30.35R WCI  23
LAMONI         CLEAR     28  25  88 NW8       30.27R WCI  20
RED OAK *      CLEAR     27  27 100 N3        30.33R
SHENANDOAH *   CLEAR     28  27  93 NE5       30.34R WCI  23
$$

IAZ047>049-059>061-072>074-084-191100-
   CENTRAL IOWA

CITY           SKY/WX    TMP DP  RH WIND       PRES   REMARKS
AMES           CLEAR     32  27  81 N10       30.29R WCI  24
ANKENY *       CLEAR     32  28  86 N9        30.31R WCI  24
BOONE *        CLEAR     30  28  93 N10       30.28R WCI  21
CHARITON *     CLOUDY    30  28  93 N9        30.26R WCI  22
DES MOINES     PTCLDY    32  29  88 N7        30.29R WCI  26
GRINNELL*      CLEAR     30  29  94 NW8       30.27R WCI  23
KNOXVILLE *    CLOUDY    32  30  93 N10       30.26R WCI  24
MARSHALLTOWN   CLOUDY    28  26  92 N8        30.27R WCI  20
NEWTON *       CLEAR     32  30  93 N14       30.27R WCI  22
PELLA *        CLEAR     32  30  92 N8        30.28R WCI  25
$$

IAZ004>006-015-016-023>025-035-036-191100-
   NORTH CENTRAL IOWA

CITY           SKY/WX    TMP DP  RH WIND       PRES   REMARKS
ALGONA *       PTCLDY    21  18  86 N7        30.32R WCI  13
CLARION *      PTCLDY    25  21  86 N9        30.30R WCI  15
ESTHERVILLE    CLOUDY    20  14  77 NW10      30.33R WCI   9
FORT DODGE *   CLEAR     28  24  85 N6        30.32R WCI  22
MASON CITY     CLOUDY    18  16  92 N7        30.31R WCI   9
FOREST CITY *  FAIR      25  23  93 N6        30.31R WCI  18
$$

IAZ007>011-017>019-026>030-037>042-050>054-066-191100-
   NORTHEAST IOWA

CITY           SKY/WX    TMP DP  RH WIND       PRES   REMARKS
CEDAR RAPIDS   MOCLDY    30  28  92 NW9       30.24R WCI  22
CHARLES CITY * FAIR      23  23 100 N12       30.29R WCI  12
CLINTON *      CLOUDY    33  31  92 NW10      30.22R WCI  25
DUBUQUE        FAIR      28  25  88 N6        30.22R WCI  22
MONTICELLO *   FAIR      30  28  93 N8        30.24R WCI  23
OELWEIN *      FAIR      19  19 100 NW8       30.28R WCI   9
WATERLOO       FAIR      26  23  88 N9        30.28R WCI  17
$$

IAZ064-065-067-068-078-191100-
   EAST CENTRAL IOWA

CITY           SKY/WX    TMP DP  RH WIND       PRES   REMARKS
IOWA CITY      CLOUDY    34  30  85 N8        30.26R WCI  27
MUSCATINE *    CLOUDY    36  30  80 NW8       30.25R WCI  29
QUAD CITIES    CLOUDY    35  31  85 NW9       30.21R WCI  28
$$

IAZ062-063-075>077-085>089-095>099-191100-
   SOUTHEAST IOWA

CITY           SKY/WX    TMP DP  RH WIND       PRES   REMARKS
BURLINGTON     CLOUDY    34  29  82 NW9       30.22R WCI  27
FAIRFIELD *    CLOUDY    34  30  86 NW12      30.25R WCI  25
FORT MADISON * CLOUDY    34  30  86 NW7       30.24R WCI  28
KEOKUK *       CLOUDY    34  30  86 NW12      30.23R WCI  25
OSKALOOSA *    FAIR      31  29  93 N12       30.27R WCI  22
CENTERVILLE *    N/A     32  32 100 NW10      30.26R WCI  24
OTTUMWA        CLOUDY    32  28  85 NW12      30.26R WCI  23
WASHINGTON *   CLOUDY    32  32 100 NW12      30.26R WCI  23
$$

ABBREVIATIONS USED IN REMARKS
   TC - TEMPERATURES IN CELSIUS
  WCI - WIND CHILL INDEX
   HX - HEAT INDEX
  VSB - VISIBILITY
$$





USA.gov is the U.S. government's official web portal to all federal, state and local government web resources and services.